Weather reports worldwide

Advertisment
Auch, France (7622): temperature & dewpoint: 20.05.2019 02:00:00 - 26.05.2019 02:00:00 (CEST)Auch, France (7622): temperature 5cm: 20.05.2019 02:00:00 - 26.05.2019 02:00:00 (CEST)Auch, France (7622): temperature -20cm & temperature -100cm: 20.05.2019 02:00:00 - 26.05.2019 02:00:00 (CEST)Auch, France (7622): wind speed & gusts: 20.05.2019 02:00:00 - 26.05.2019 02:00:00 (CEST)Auch, France (7622): wind direction: 20.05.2019 02:00:00 - 26.05.2019 02:00:00 (CEST)Auch, France (7622): reduced air pressure: 20.05.2019 02:00:00 - 26.05.2019 02:00:00 (CEST)Auch, France (7622): visibility: 20.05.2019 02:00:00 - 26.05.2019 02:00:00 (CEST)Auch, France (7622): sunshine duration: 20.05.2019 02:00:00 - 26.05.2019 02:00:00 (CEST)Auch, France (7622): precipitation: 20.05.2019 02:00:00 - 26.05.2019 02:00:00 (CEST)
Date & Time tt [°C] td [°C] tt 5cm [°C] tt -20cm [°C] tt -100cm [°C] ff [km/h] ff [kn] fx [km/h] fx [kn] dd ppp [hPa] vv [km] sd [min] rr [mm]
26.05.2019 02:00:00 - - - - - - - - - - - - - -
26.05.2019 01:00:00 12,5 9,1 9,6 18,0 15,5 2 1 22 12 W 1023,4 20 0 0,0
26.05.2019 00:00:00 13,6 9,2 12,2 18,1 15,5 11 6 25 13 WNW 1023,5 20 0 0,0
25.05.2019 23:00:00 15,0 9,8 13,4 18,1 15,5 8 5 24 13 WNW 1023,0 20 0 0,0
25.05.2019 22:00:00 16,3 10,6 14,4 18,1 15,5 7 4 21 11 WNW 1021,9 20 0 0,0
25.05.2019 21:00:00 17,3 10,4 16,3 18,1 15,5 11 6 26 14 NW 1021,3 20 31 0,0
25.05.2019 20:00:00 19,2 11,5 18,2 18,0 15,5 13 7 23 13 NNW 1020,7 20 13 0,0
25.05.2019 19:00:00 19,0 10,3 19,6 17,9 15,5 19 10 37 20 NW 1020,5 20 36 0,0
25.05.2019 18:00:00 20,2 10,9 20,1 17,9 15,5 18 10 31 17 WNW 1020,1 20 17 0,0
25.05.2019 17:00:00 19,8 10,5 20,3 17,7 15,4 16 9 28 15 NW 1020,0 20 0 0,0
25.05.2019 16:00:00 20,0 10,4 20,1 17,5 15,4 13 7 27 15 WNW 1020,0 20 0 0,0
25.05.2019 15:00:00 19,8 11,8 21,4 17,5 15,4 15 8 33 18 WNW 1020,2 20 17 0,0
25.05.2019 14:00:00 20,7 13,4 19,7 17,4 15,4 15 8 30 16 WNW 1020,4 20 29 0,0
25.05.2019 13:00:00 18,1 13,0 19,2 17,3 15,4 14 8 28 15 WNW 1020,8 20 24 0,0
25.05.2019 12:00:00 18,8 13,4 18,5 17,3 15,4 15 8 25 14 NW 1020,9 20 35 0,0
25.05.2019 11:00:00 16,0 13,5 16,6 17,3 15,4 9 5 23 13 W 1021,0 20 0 0,0
25.05.2019 10:00:00 15,0 13,0 14,9 17,4 15,4 6 3 21 11 WNW 1020,8 20 0 0,0
25.05.2019 09:00:00 14,3 12,8 13,7 17,4 15,4 9 5 26 14 W 1020,3 19 0 0,0
25.05.2019 08:00:00 13,7 12,6 13,3 17,5 15,4 7 4 22 12 W 1019,9 20 0 0,0
25.05.2019 07:00:00 13,5 12,6 13,2 17,5 15,4 8 4 19 10 W 1019,5 9 0 0,0
25.05.2019 06:00:00 13,6 12,5 13,1 17,6 15,4 9 5 23 12 W 1019,3 12 0 0,0
25.05.2019 05:00:00 13,6 12,3 13,2 17,7 15,4 10 5 22 12 WNW 1019,1 19 0 0,0
25.05.2019 04:00:00 13,6 12,3 13,2 17,7 15,4 9 5 22 12 W 1019,2 20 0 0,0
25.05.2019 03:00:00 13,7 12,6 13,2 17,8 15,4 7 4 18 10 W 1019,2 17 0 0,0
25.05.2019 02:00:00 13,9 12,8 13,5 17,8 15,4 7 4 19 10 W 1019,5 17 0 0,0
25.05.2019 01:00:00 14,1 13,0 13,6 17,9 15,4 10 5 21 11 W 1019,6 11 0 0,6
25.05.2019 00:00:00 14,5 13,2 13,9 17,9 15,3 12 7 24 13 WNW 1019,5 9 0 0,4
24.05.2019 23:00:00 14,8 13,5 14,3 17,9 15,3 9 5 21 11 NW 1019,2 15 0 0,2
24.05.2019 22:00:00 15,2 13,4 14,6 18,0 15,4 7 4 26 14 W 1018,5 20 0 0,0
24.05.2019 21:00:00 15,5 13,7 15,3 17,9 15,3 10 5 22 12 WSW 1018,0 20 0 0,0
24.05.2019 20:00:00 15,6 13,8 15,6 17,9 15,3 7 4 16 9 WSW 1017,9 20 0 0,0
24.05.2019 19:00:00 15,7 13,9 15,9 17,9 15,3 8 4 22 12 WSW 1017,7 20 0 0,0
24.05.2019 18:00:00 15,9 13,6 16,5 17,8 15,3 12 7 21 12 WSW 1017,7 20 0 0,0
24.05.2019 17:00:00 16,3 14,7 16,2 17,8 15,3 7 4 16 9 W 1017,7 20 0 1,6
24.05.2019 16:00:00 15,9 14,3 16,0 17,7 15,3 9 5 16 9 WNW 1018,2 17 0 2,0
24.05.2019 15:00:00 16,1 14,5 16,1 17,6 15,3 6 3 20 11 W 1018,4 14 0 0,6
24.05.2019 14:00:00 16,7 14,0 17,1 17,6 15,3 3 2 11 6 NW 1018,3 19 0 0,0
24.05.2019 13:00:00 16,4 13,3 16,5 17,7 15,3 5 3 11 6 NNW 1018,5 20 0 0,0
24.05.2019 12:00:00 15,4 13,6 15,1 17,7 15,2 8 5 13 7 NW 1018,7 16 0 0,2
24.05.2019 11:00:00 15,1 13,3 15,0 17,7 15,3 5 3 13 7 WNW 1018,9 19 0 0,2
24.05.2019 10:00:00 14,4 13,1 13,9 17,8 15,3 5 3 11 6 W 1018,9 18 0 0,2
24.05.2019 09:00:00 13,7 12,8 13,0 17,9 15,3 2 1 8 4 SW 1018,8 15 0 0,2
24.05.2019 08:00:00 13,2 12,4 12,7 18,0 15,2 3 1 9 5 SW 1018,6 15 0 2,0
24.05.2019 07:00:00 13,2 12,3 12,7 18,1 15,3 0 0 9 5 N 1018,3 6 0 2,8
24.05.2019 06:00:00 13,4 12,5 12,9 18,2 15,2 2 1 20 11 SSW 1018,0 10 0 3,8
24.05.2019 05:00:00 13,5 12,4 13,0 18,3 15,2 8 4 29 15 W 1018,1 11 0 5,9
24.05.2019 04:00:00 14,9 12,8 14,6 18,4 15,2 11 6 23 12 WNW 1018,1 20 0 0,0
24.05.2019 03:00:00 15,1 13,1 14,6 18,5 15,2 5 3 25 13 W 1018,2 20 0 0,0
24.05.2019 02:00:00 15,2 13,0 14,9 18,5 15,2 9 5 23 13 WSW 1018,5 17 0 0,0
24.05.2019 01:00:00 15,3 12,8 14,9 18,6 15,2 10 5 32 17 WSW 1018,7 20 0 0,0
24.05.2019 00:00:00 16,2 12,7 15,7 18,6 15,2 14 8 26 14 SW 1018,7 20 0 0,0
23.05.2019 23:00:00 16,8 13,1 16,3 18,6 15,2 11 6 29 16 WSW 1018,6 20 0 0,0
23.05.2019 22:00:00 18,7 14,4 18,0 18,6 15,2 13 7 35 19 W 1017,4 20 0 0,0
23.05.2019 21:00:00 21,5 15,1 20,7 18,6 15,2 11 6 29 16 WNW 1016,4 20 9 0,0
23.05.2019 20:00:00 22,5 12,1 22,3 18,5 15,2 6 3 13 7 W 1015,8 20 0 0,0
23.05.2019 19:00:00 22,7 12,0 22,1 18,4 15,2 8 4 14 7 NW 1015,7 20 0 0,0
23.05.2019 18:00:00 22,5 11,2 20,9 18,2 15,2 8 4 17 9 W 1015,6 20 0 0,0
23.05.2019 17:00:00 24,2 9,4 23,5 17,9 15,2 6 3 14 8 W 1015,5 20 0 0,0
23.05.2019 16:00:00 25,2 8,6 28,1 17,6 15,1 9 5 19 10 NW 1015,7 20 35 0,0
23.05.2019 15:00:00 25,4 10,4 30,7 17,3 15,1 5 3 16 9 NNE 1015,8 20 56 0,0
23.05.2019 14:00:00 25,4 8,8 30,6 17,1 15,1 - - - - - 1016,3 20 55 0,0
23.05.2019 13:00:00 24,9 8,8 30,9 17,0 15,1 6 4 - - N 1016,7 20 60 0,0
23.05.2019 12:00:00 24,0 10,6 30,0 16,9 15,2 4 2 10 5 - 1017,1 20 60 0,2
23.05.2019 11:00:00 22,6 11,6 25,3 16,9 15,1 4 2 9 5 S 1017,2 20 60 0,0
23.05.2019 10:00:00 19,1 12,4 18,1 17,0 15,2 4 2 12 6 S 1017,5 20 60 0,0
23.05.2019 09:00:00 14,8 11,0 13,1 17,1 15,1 9 5 14 7 S 1017,8 20 60 0,0
23.05.2019 08:00:00 11,1 10,0 7,9 17,2 15,1 7 4 15 8 S 1017,8 20 41 0,0
23.05.2019 07:00:00 8,9 8,1 4,5 17,4 15,1 7 4 11 6 SSW 1017,7 20 0 0,0
23.05.2019 06:00:00 8,6 8,0 4,0 17,6 15,1 2 1 5 3 S 1017,7 20 0 0,0
23.05.2019 05:00:00 8,8 8,0 4,6 17,7 15,1 2 1 4 2 SSW 1017,4 20 0 0,0
23.05.2019 04:00:00 9,3 8,5 5,1 17,9 15,1 0 0 6 3 N 1017,4 20 0 0,0
23.05.2019 03:00:00 9,5 8,6 5,2 18,0 15,1 0 0 3 2 N 1017,8 20 0 0,0
23.05.2019 02:00:00 10,2 9,1 6,0 18,1 15,1 0 0 3 2 N 1017,9 20 0 0,0
23.05.2019 01:00:00 10,9 9,3 6,5 18,2 15,1 0 0 3 2 N 1018,1 20 0 0,0
23.05.2019 00:00:00 12,2 10,3 7,7 18,3 15,1 0 0 3 1 N 1018,2 20 0 0,0
22.05.2019 23:00:00 13,8 10,6 9,0 18,3 15,1 2 1 3 1 WSW 1018,5 20 0 0,0
22.05.2019 22:00:00 16,4 11,3 10,5 18,2 15,1 0 0 3 2 N 1017,9 20 0 0,0
22.05.2019 21:00:00 21,4 10,2 18,3 18,1 15,1 3 2 10 6 NNE 1017,5 20 21 0,0
22.05.2019 20:00:00 23,2 7,7 25,5 18,0 15,1 8 4 18 10 N 1017,2 20 60 0,0
22.05.2019 19:00:00 23,6 9,2 27,5 17,7 15,1 10 6 25 13 NNE 1017,0 20 60 0,0
22.05.2019 18:00:00 24,0 9,9 28,5 17,4 15,1 11 6 20 11 N 1017,2 20 60 0,0
22.05.2019 17:00:00 23,3 8,9 25,3 17,1 15,1 8 4 27 15 NNE 1017,6 20 54 0,0
22.05.2019 16:00:00 23,7 10,7 30,4 16,8 15,1 7 4 16 8 WNW 1017,9 20 60 0,0
22.05.2019 15:00:00 22,9 10,0 24,6 16,5 15,1 5 3 20 11 NW 1018,4 20 48 0,0
22.05.2019 14:00:00 22,9 11,3 29,7 16,3 15,1 6 3 15 8 SSE 1018,8 20 60 0,0
22.05.2019 13:00:00 21,5 11,5 23,1 16,1 15,1 4 2 16 8 WSW 1019,3 20 45 0,0
22.05.2019 12:00:00 20,9 12,3 26,6 16,0 15,1 4 2 16 9 N 1019,6 20 60 0,0
22.05.2019 11:00:00 19,5 12,5 22,5 16,1 15,1 4 2 8 4 WNW 1019,7 20 60 0,0
22.05.2019 10:00:00 17,6 12,7 16,1 16,1 15,1 3 2 10 5 NNE 1020,0 20 60 0,0
22.05.2019 09:00:00 13,1 10,6 11,0 16,2 15,1 8 4 16 9 S 1020,2 20 60 0,0
22.05.2019 08:00:00 9,9 8,8 6,8 16,3 15,1 12 6 16 8 S 1020,2 20 49 0,0
22.05.2019 07:00:00 7,7 6,9 6,4 16,5 15,1 10 5 17 9 S 1020,1 20 0 0,0
22.05.2019 06:00:00 7,8 7,2 5,6 16,6 15,1 14 8 17 9 S 1019,9 20 0 0,0
22.05.2019 05:00:00 8,0 7,4 4,4 16,8 15,1 5 3 8 4 SW 1019,8 20 0 0,2
22.05.2019 04:00:00 8,3 7,5 4,7 16,9 15,1 0 0 8 4 N 1019,6 19 0 0,0
22.05.2019 03:00:00 8,2 7,1 5,3 17,0 15,1 3 2 12 7 S 1019,8 19 0 0,0
22.05.2019 02:00:00 9,5 8,3 5,0 17,1 15,1 6 3 10 5 SSW 1019,8 20 0 0,0
22.05.2019 01:00:00 8,9 7,7 5,0 17,2 15,1 2 1 5 3 SSW 1019,8 20 0 0,0
22.05.2019 00:00:00 10,1 8,9 5,7 17,2 15,1 0 0 4 2 N 1019,8 20 0 0,0
21.05.2019 23:00:00 11,0 8,9 7,0 17,2 15,1 3 1 4 2 S 1019,9 20 0 0,0
21.05.2019 22:00:00 13,7 9,7 8,4 17,2 15,1 2 1 6 3 SSW 1019,3 20 0 0,0
21.05.2019 21:00:00 17,4 9,0 15,7 17,1 15,1 8 4 14 8 N 1018,3 20 35 0,0
21.05.2019 20:00:00 19,7 8,7 22,2 16,9 15,1 9 5 18 10 NNW 1017,7 20 60 0,0
21.05.2019 19:00:00 20,0 9,0 24,6 16,7 15,1 9 5 19 10 NW 1017,5 20 60 0,0
21.05.2019 18:00:00 20,1 9,3 20,4 16,5 15,1 11 6 19 11 NNW 1017,6 20 47 0,0
21.05.2019 17:00:00 20,0 9,3 22,8 16,3 15,1 7 4 21 12 NW 1018,0 20 60 0,0
21.05.2019 16:00:00 18,4 8,6 21,2 16,1 15,1 8 5 23 12 N 1018,5 20 54 0,0
21.05.2019 15:00:00 17,8 9,4 24,6 15,9 15,1 8 4 20 11 NNW 1018,7 20 60 0,0
21.05.2019 14:00:00 16,5 10,8 18,3 15,9 15,1 6 3 17 9 NW 1019,2 20 33 0,0
21.05.2019 13:00:00 14,8 11,0 17,1 15,8 15,1 10 5 18 10 NNW 1019,5 20 1 0,0
21.05.2019 12:00:00 13,7 10,9 15,2 15,8 15,1 7 4 14 8 WNW 1019,3 19 0 0,0
21.05.2019 11:00:00 12,6 10,5 14,6 15,8 15,1 5 3 12 7 W 1019,3 19 0 0,0
21.05.2019 10:00:00 11,4 10,6 11,8 15,9 15,1 5 3 9 5 WSW 1019,0 12 0 0,0
21.05.2019 09:00:00 10,6 10,1 10,5 15,9 15,1 3 1 8 4 W 1018,8 4,6 0 0,0
21.05.2019 08:00:00 9,7 9,4 9,4 16,1 15,1 4 2 9 5 SW 1018,4 1,6 0 0,0
21.05.2019 07:00:00 9,2 8,9 8,0 16,2 15,1 6 3 11 6 S 1017,9 0,6 0 0,0
21.05.2019 06:00:00 8,3 7,9 4,6 16,3 15,1 7 4 11 6 S 1017,6 13 0 0,0
21.05.2019 05:00:00 7,7 7,1 4,9 16,4 15,1 5 3 10 5 SSW 1017,5 13 0 0,0
21.05.2019 04:00:00 8,3 7,7 5,7 16,5 15,1 6 4 9 5 S 1017,3 12 0 0,0
21.05.2019 03:00:00 8,9 8,1 6,9 16,6 15,1 6 4 13 7 S 1017,4 15 0 0,0
21.05.2019 02:00:00 9,2 8,3 6,2 16,7 15,1 8 4 10 6 S 1017,4 19 0 0,0
21.05.2019 01:00:00 9,8 8,9 6,1 16,8 15,1 6 3 8 4 S 1017,6 19 0 0,0
21.05.2019 00:00:00 11,0 9,9 6,5 16,9 15,1 5 3 8 5 S 1017,3 20 0 0,0
20.05.2019 23:00:00 11,1 8,1 7,1 16,9 15,1 3 2 7 4 SSW 1017,1 20 0 0,0
20.05.2019 22:00:00 13,3 8,8 9,4 16,9 15,1 4 2 13 7 W 1016,1 20 0 0,0
20.05.2019 21:00:00 15,3 9,2 14,3 16,8 15,1 8 4 23 13 NW 1015,5 20 36 0,0
20.05.2019 20:00:00 16,9 9,6 16,2 16,7 15,1 11 6 21 11 NW 1015,0 20 17 0,0
20.05.2019 19:00:00 16,7 8,6 16,9 16,5 15,1 13 7 26 14 WNW 1014,8 20 17 0,0
20.05.2019 18:00:00 16,1 11,5 17,4 16,4 15,1 10 6 31 17 N 1014,6 20 9 0,0
20.05.2019 17:00:00 18,4 10,2 20,3 16,2 15,1 13 7 27 14 W 1014,2 20 45 0,0
20.05.2019 16:00:00 18,6 10,2 19,8 16,0 15,1 11 6 24 13 WSW 1014,3 20 39 0,0
20.05.2019 15:00:00 17,3 9,7 18,2 15,8 15,1 10 5 23 12 W 1014,8 20 22 0,0
20.05.2019 14:00:00 17,0 10,1 19,3 15,7 15,1 11 6 25 14 SW 1015,0 20 18 0,0
20.05.2019 13:00:00 16,0 10,1 16,9 15,6 15,1 11 6 26 14 WSW 1015,2 19 3 0,0
20.05.2019 12:00:00 15,8 10,1 16,4 15,6 15,1 9 5 20 11 W 1015,1 20 5 0,0
20.05.2019 11:00:00 14,3 9,9 15,1 15,5 15,1 12 6 27 15 WSW 1015,4 20 4 0,0
20.05.2019 10:00:00 14,5 10,3 15,2 15,6 15,1 11 6 28 15 W 1015,1 20 48 0,0
20.05.2019 09:00:00 13,4 10,4 12,7 15,6 15,1 11 6 25 13 W 1015,1 19 40 0,0
20.05.2019 08:00:00 12,0 10,1 11,5 15,7 15,1 8 4 20 11 W 1014,6 19 1 0,0
20.05.2019 07:00:00 11,6 9,8 11,2 15,7 15,1 4 2 17 9 WNW 1014,2 19 0 0,0
20.05.2019 06:00:00 11,6 9,8 10,9 15,8 15,1 8 5 17 9 W 1013,8 20 0 0,0
20.05.2019 05:00:00 11,1 9,7 10,5 15,9 15,1 5 3 13 7 WSW 1013,8 18 0 0,0
20.05.2019 04:00:00 11,0 9,7 9,8 16,0 15,1 7 4 13 7 WSW 1013,9 17 0 0,0
20.05.2019 03:00:00 10,8 9,7 9,4 16,0 15,1 8 4 14 8 WSW 1014,2 13 0 0,0
20.05.2019 02:00:00 11,3 9,7 10,2 16,1 15,1 7 4 21 11 WSW 1014,5 15 0 0,0

tt = temperature
td = dewpoint
tt 5cm = temperature 5cm
tt -20cm = temperature -20cm
tt -100cm = temperature -100cm
ff = wind speed
fx = gusts
dd = wind direction
ppp = reduced air pressure
vv = visibility
sd = sunshine duration
rr = precipitation

Next stations